C/2017 K4 ( ATLAS )

Japanese version
Home page
Updated on July 8, 2017

---------------------------------------------------------------------

* Profile

Discovery Date May 26, 2017
Magnitude 17.0 mag
Discoverer Asteroid Terrestrial-impact Last Alert System (ATLAS) Team

* Pictures

* Orbital Elements

Epoch 2018 Jan. 2.0 TT = JDT 2458120.5
T 2018 Jan. 8.01272 TT                                  MPCW
q   2.6481585            (2000.0)            P               Q
n   0.00663082     Peri.   15.09965     +0.68506362     +0.68378517
a  28.0602339      Node   298.90024     -0.69457936     +0.50911065
e   0.9056259      Incl.   16.67779     -0.21965280     +0.52272764
P 149
From 161 observations 2017 May 26-June 30, mean residual 0".4.

* Finding Charts

* Magnitudes Graph

        m1 = 9.0 + 5 log d + 10.0 log r

---------------------------------------------------------------------

The orbital elements are published on M.P.E.C. 2017-N58.
The charts are made with StellaNavigator Ver.10 (AstroArts).
The magnitudes graphs are made with Comet for Windows.

---------------------------------------------------------------------

Copyright(C) Seiichi Yoshida (comet@aerith.net). All rights reserved.